Location: ????
(32.9815°N, 35.2034°E)
Time: 07:16:49
(UTC+00:00)

Daily predictions for brighter satellites

Satellite Brightness Start Highest point End
(mag) Time Altitude Azimuth Time Altitude Azimuth Time Altitude Azimuth
Cosmos 2184 Rocket 4.0 15:13:24 10° S 15:19:36 87° E 15:25:47 10° N
Centaur AC-116 4.0 15:21:31 10° SW 15:23:15 21° S 15:25:38 10° SE
SL-14 R/B 3.3 15:20:20 10° S 15:24:19 63° E 15:28:16 10° NNE
SJ 16-02 4.3 15:25:01 10° W 15:26:33 12° WNW 15:28:04 10° NW
Cosmos 1908 3.6 15:22:46 10° NNW 15:26:36 69° W 15:30:24 10° S
Cosmos 2154 Rocket 4.1 15:21:04 10° S 15:27:14 60° E 15:33:24 10° NNE
Cosmos 2219 3.8 15:23:18 10° SSE 15:28:21 35° ESE 15:33:24 10° NE
Cosmos 1300 3.4 15:27:26 10° NNE 15:30:55 32° E 15:34:21 10° SE
Cosmos 1271 Rocket 3.1 15:29:07 10° SSW 15:32:48 64° W 15:36:31 10° N
ATLAS 5 CENTAUR R/B 4.2 15:35:56 10° WNW 15:37:25 11° NW 15:38:55 10° NNW
SKYMED 2 3.5 15:36:05 10° NNE 15:40:26 78° ESE 15:44:45 10° S
Cosmos 1174 3.6 15:37:12 10° NNW 15:40:30 80° WSW 15:44:28 10° SSE
Cosmos 2333 4.2 15:35:43 10° NNW 15:41:25 72° ENE 15:47:02 10° SSE
Cosmos 2322 3.7 15:37:36 10° NNW 15:43:17 86° ENE 15:48:56 10° SSE
ADEOS Rocket 4.1 15:41:04 10° NE 15:46:45 29° E 15:52:50 10° SSE
Cosmos 2297 Rocket 2.8 15:42:05 10° SSE 15:47:09 35° ESE 15:52:14 10° NE
CZ-4 R/B 1.7 15:45:18 10° SE 15:49:02 42° ENE 15:52:51 10° N
ISS -2.1 15:48:14 10° S 15:50:46 20° SE 15:52:04 16° E
CZ-4C R/B 3.5 15:46:15 10° NNW 15:53:09 38° NE 16:00:43 10° ESE
Cosmos 1626 3.0 15:50:18 10° SSW 15:53:53 52° W 15:57:31 10° N
Cosmos 1812 Rocket 3.6 15:50:32 10° N 15:54:55 55° E 15:59:18 10° SSE
Ariane Rocket 4.4 15:55:13 16° ENE 15:55:13 16° ENE 15:58:16 10° NNE
YAOGAN 1 2.9 15:51:41 10° SE 15:55:43 40° ENE 15:59:46 10° N
Cosmos 1295 Rocket 4.5 15:52:14 10° S 15:58:34 83° E 16:04:56 10° N
Cosmos 2227 Rocket 2.6 15:53:37 10° S 15:58:51 41° ESE 16:03:29 13° NE
Atlas Centaur 2 3.9 15:55:58 10° S 15:59:40 19° SSE 16:03:11 12° ESE
Cosmos 2360 Rocket 4.0 15:54:49 10° NW 15:59:52 35° WSW 16:04:53 10° SSW
NOAA 11 4.5 15:55:47 10° SE 16:00:58 44° ENE 16:06:10 10° N
YAOGAN 6 3.0 15:57:42 10° S 16:01:22 68° W 16:05:04 10° NNW
COSMOS 2428 2.7 15:57:07 10° NNW 16:02:51 70° ENE 16:08:32 10° SSE
USA 116 3.0 16:01:38 10° NNE 16:04:51 78° ESE 16:07:55 10° S
Cosmos 962 Rocket 4.4 16:00:46 10° S 16:06:51 80° E 16:12:59 10° N
Cosmos 494 Rocket 4.3 16:02:49 10° N 16:07:37 40° ENE 16:12:25 10° SE
DELTA 2 R/B (1) 3.7 16:02:30 10° WSW 16:08:04 70° NNW 16:11:39 23° ENE
Cosmos 724 4.3 16:02:34 10° SSW 16:08:36 85° ESE 16:14:19 11° NNE
Cosmos 2219 Rocket 2.1 16:03:25 10° NNW 16:09:07 83° ENE 16:14:46 10° SSE
USA 32 3.9 16:04:50 10° S 16:10:02 81° E 16:15:17 10° N
ASTRO E2 3.6 16:06:26 10° W 16:10:12 42° SSW 16:13:02 16° SE
Shenzhou-11 Module 2.5 16:09:03 10° SSW 16:11:32 35° SE 16:11:43 34° SE
ERBS 2.2 16:10:37 10° SW 16:13:56 80° NW 16:15:22 31° NNE
Cosmos 1932 4.5 16:09:17 10° SSW 16:15:30 66° ESE 16:20:30 17° NE
Nadezhda 3 Rocket 4.3 16:12:49 10° N 16:19:04 72° W 16:25:22 10° S
Okean-O 4.3 16:15:12 10° SSW 16:19:16 36° W 16:23:22 10° NNW
Cosmos-2242 3.4 16:16:48 10° NNE 16:20:50 37° E 16:24:48 10° SSE
DMSP B5D1-3 4.4 16:17:38 10° NNE 16:22:45 84° ESE 16:27:50 10° SSW
Cosmos 44 3.7 16:18:54 10° S 16:23:15 37° ESE 16:23:56 35° E
Cosmos 1953 Rocket 3.5 16:21:53 10° S 16:26:15 60° E 16:28:59 22° NNE
Cosmos 2341 Rocket 4.2 16:21:17 10° S 16:27:39 76° W 16:34:02 10° N
Cosmos 1758 Rocket 4.0 16:27:38 10° SSW 16:31:54 62° W 16:36:10 10° N
BREEZE-M DEB (TANK) 4.4 16:18:14 10° NW 16:35:16 80° NE 16:37:58 30° ESE
CSL-04 Debris 4.2 16:30:53 10° S 16:36:15 78° WSW 16:41:40 10° NNW
SL-8 Rocket 4.0 16:31:06 10° S 16:37:25 89° W 16:43:45 10° N
SL-8 R/B 3.6 16:32:56 10° SW 16:37:44 90° NW 16:39:02 49° NE
Meteor 1-11 4.5 16:33:27 10° SSE 16:38:43 42° E 16:38:54 42° E
CZ-2D R/B 3.4 16:37:32 10° S 16:41:19 72° W 16:45:08 10° NNW
Cosmos 1461 3.6 16:39:11 10° NW 16:43:32 58° WSW 16:48:00 10° SSE
H-2A ROCKET BODY 2.0 16:40:05 10° W 16:46:53 43° SSW 16:47:20 40° S
NOSS 0 Rocket 3.9 16:42:13 10° NNW 16:48:26 87° WSW 16:54:37 10° SSE
Cosmos 2333 Rocket 3.7 16:46:27 10° NW 16:51:39 37° WSW 16:56:47 10° S
Cosmos 1328 3.8 16:48:04 10° S 16:51:52 78° SW 16:51:52 78° SW
Gblst 52 Del rocket 4.4 16:49:51 10° SW 16:56:00 80° SE 16:57:52 51° ENE
Cosmos 2237 Rocket 2.0 16:50:54 10° NNW 16:56:32 74° ENE 16:58:08 47° SE
Cosmos 1269 Rocket 4.0 16:53:53 10° NNW 16:59:10 80° WSW 17:04:26 10° SSE
SL-08 R/B 4.3 16:54:15 10° S 17:00:25 75° E 17:03:34 32° NNE
Cosmos 1939 Rocket 4.2 16:57:12 10° SSW 17:00:48 38° W 17:04:28 10° NNW
Meteor 2-10 Rocket 3.3 16:56:15 10° N 17:01:36 81° E 17:06:42 10° S
Cosmos 2218 Rocket 4.4 16:57:56 10° SSW 17:04:08 64° W 17:10:28 10° N
Atlas 2A Centaur Rocket 4.1 17:02:52 10° SW 17:06:51 18° S 17:06:51 18° S
SL-16 R/B 4.5 17:10:31 10° N 17:10:46 11° N 17:10:46 11° N
Cosmos 2082 3.9 17:11:44 10° SSW 17:17:17 66° WNW 17:18:05 58° NNW
ISS -0.5 17:24:24 10° W 17:25:02 14° W 17:25:02 14° W
Cosmos 2297 Rocket 4.1 17:26:32 10° WSW 17:31:11 26° WNW 17:34:15 17° NNW
ADEOS Rocket 4.3 17:26:01 10° N 17:32:11 44° WNW 17:38:56 10° SW
Ariane Rocket 4.3 17:28:50 10° S 17:35:23 34° NW 17:38:34 10° NNW
CZ-4C R/B 3.8 17:34:33 10° NW 17:41:56 49° WSW 17:49:56 10° S
Cosmos 2227 Rocket 4.2 17:38:36 10° WSW 17:43:00 23° WNW 17:45:23 18° NNW
Atlas Centaur 2 3.5 17:42:18 10° SW 17:45:47 36° SSW 17:45:47 36° SSW
